This demonstration page uses our WeatherBlox Daily Observations layout. Learn more.

Left ArrowRight Arrow

53.62937, 11.41316

Hourly Observations for April 15, 2016

Temp ( °F °C ) Dew Point ( °F °C ) Humidity (%) Winds ( mph kmh ) Pressure ( in mb ) Visibility ( mi km ) Precip ( " mm )
6:20 am 06:20 Mostly Sunny 36 2 34 1 93 93 E 8 13 29.74 1007 7 11 N/A
6:50 am 06:50 Mostly Sunny 39 4 37 3 93 93 E 8 13 29.74 1007 7 11 N/A
7:20 am 07:20 Mostly Sunny 41 5 37 3 87 87 ESE 9 15 29.71 1006 7 11 N/A
7:50 am 07:50 Mostly Sunny 41 5 39 4 93 93 E 8 13 29.71 1006 7 11 N/A
8:20 am 08:20 Mostly Sunny 45 7 41 5 87 87 ENE 8 13 29.71 1006 7 11 N/A
8:50 am 08:50 Mostly Sunny 48 9 41 5 76 76 SE 9 15 29.68 1005 7 11 N/A
9:20 am 09:20 Mostly Sunny 50 10 41 5 71 71 SE 13 20 29.68 1005 7 11 N/A
9:50 am 09:50 Mostly Sunny 54 12 39 4 58 58 SSE 15 24 29.65 1004 7 11 N/A
10:20 am 10:20 Mostly Sunny 54 12 39 4 58 58 SSE 15 24 29.65 1004 7 11 N/A
10:50 am 10:50 Mostly Cloudy 54 12 39 4 58 58 S 10 17 29.65 1004 30 48 N/A
11:20 am 11:20 Mostly Cloudy 54 12 41 5 63 63 S 10 17 29.65 1004 30 48 N/A
11:50 am 11:50 Mostly Cloudy 54 12 41 5 63 63 SSE 13 20 29.62 1003 30 48 N/A
12:20 pm 12:20 Mostly Cloudy with Light Rain 54 12 43 6 67 67 SSE 9 15 29.62 1003 30 48 N/A
12:50 pm 12:50 Mostly Cloudy with Light Rain 52 11 43 6 72 72 S 9 15 29.62 1003 30 48 N/A
1:20 pm 13:20 Mostly Cloudy with Light Rain 52 11 45 7 77 77 S 7 11 29.62 1003 4 6 N/A
1:50 pm 13:50 Mostly Cloudy with Light Rain 50 10 46 8 88 88 SSE 7 11 29.59 1002 3 5 N/A
2:20 pm 14:20 Mostly Cloudy with Light Rain 50 10 48 9 94 94 SSE 9 15 29.59 1002 3 5 N/A
2:50 pm 14:50 Mostly Cloudy with Light Rain 50 10 48 9 94 94 SSE 9 15 29.56 1001 3 5 N/A
3:20 pm 15:20 Mostly Cloudy with Light Rain 50 10 48 9 94 94 SSE 9 15 29.56 1001 4 7 N/A
3:50 pm 15:50 Mostly Cloudy with Drizzle 50 10 48 9 94 94 S 12 19 29.56 1001 2 4 N/A
4:20 pm 16:20 Mostly Cloudy with Drizzle 50 10 48 9 94 94 S 9 15 29.53 1000 4 7 N/A
4:50 pm 16:50 Mostly Cloudy 52 11 50 10 94 94 S 9 15 29.53 1000 5 8 N/A
5:20 pm 17:20 Mostly Cloudy with Light Rain 52 11 48 9 88 88 SSW 10 17 29.53 1000 4 7 N/A
5:50 pm 17:50 Mostly Cloudy 54 12 50 10 88 88 SW 13 20 29.53 1000 6 9 N/A
6:20 pm 18:20 Mostly Cloudy 54 12 48 9 82 82 WSW 15 24 29.53 1000 30 48 N/A
6:50 pm 18:50 Mostly Cloudy 54 12 48 9 82 82 WSW 10 17 29.53 1000 30 48 N/A

Powered by AerisWeather